Location: Miami, Florida
(25.6830°N, 80.1700°W)
Time: 00:23:58
(UTC-04:00)

Vanguard 1 Rocket - All Passes

Search period start: 24 February 2018 00:00
Search period end: 06 March 2018 00:00
Orbit: 655 x 4222 km, 34.3° (Epoch: 23 February)

Date Brightness Start Highest point End Pass type
(mag) Time Alt. Az. Time Alt. Az. Time Alt. Az.
24 Feb - 01:40:03 10° W 02:03:22 69° N 02:28:24 10° E visible
24 Feb - 04:12:45 10° WNW 04:39:42 87° NNE 04:58:56 10° ESE visible
24 Feb - 06:48:02 10° WNW 07:10:21 47° SW 07:23:52 10° SSE visible
24 Feb - 19:36:44 10° S 19:45:44 30° SE 20:00:34 10° ENE visible
24 Feb - 21:59:00 10° SW 22:12:52 82° SSE 22:37:52 10° ENE visible
25 Feb - 00:26:32 10° W 00:46:33 70° N 01:13:12 10° ENE visible
25 Feb - 02:57:47 10° WNW 03:23:38 76° NNE 03:46:03 10° ESE visible
25 Feb - 05:31:25 10° WNW 05:57:10 67° SW 06:13:34 10° SE visible
25 Feb - 08:10:45 10° W 08:24:31 21° SW 08:34:13 10° S daylight
25 Feb - 18:30:40 10° SSE 18:34:57 13° ESE 18:40:15 10° E daylight
25 Feb - 20:48:28 10° SW 20:59:49 61° SE 21:21:17 10° ENE visible
25 Feb - 23:13:57 10° WSW 23:30:35 76° NNW 23:57:14 10° ENE visible
26 Feb - 01:43:34 10° WNW 02:06:50 70° N 02:31:56 10° E visible
26 Feb - 04:15:49 10° WNW 04:42:36 85° SSW 05:02:05 10° ESE visible
26 Feb - 06:51:30 10° WNW 07:12:34 38° SW 07:26:07 10° SSE visible
26 Feb - 19:38:59 10° SSW 19:48:05 38° SE 20:04:16 10° ENE visible
26 Feb - 22:02:17 10° WSW 22:15:52 88° NNW 22:40:49 10° ENE visible
27 Feb - 00:30:07 10° W 00:50:03 68° N 01:16:39 10° E visible
27 Feb - 03:01:03 10° WNW 03:26:47 82° NNE 03:49:25 10° ESE visible
27 Feb - 05:34:30 10° WNW 05:59:34 58° SW 06:16:14 10° SSE visible
27 Feb - 08:16:46 10° W 08:26:44 15° SW 08:34:34 10° SSW daylight
27 Feb - 18:31:09 10° SSE 18:37:17 19° SE 18:46:08 10° E daylight
27 Feb - 20:51:28 10° SW 21:02:33 73° SE 21:24:15 10° ENE visible
27 Feb - 23:17:31 10° W 23:33:59 71° N 00:00:28 10° ENE visible
28 Feb - 01:47:01 10° WNW 02:10:13 73° NNE 02:35:26 10° E visible
28 Feb - 04:18:52 10° WNW 04:45:16 76° SW 05:05:03 10° SE visible
28 Feb - 06:55:26 10° WNW 07:14:42 31° SW 07:28:00 10° S visible
28 Feb - 19:41:35 10° SSW 19:50:34 48° SE 20:07:37 10° ENE visible
28 Feb - 22:05:42 10° WSW 22:19:05 79° NNW 22:43:49 10° ENE visible
01 Mar - 00:33:43 10° WNW 00:53:34 68° N 01:20:09 10° E visible
01 Mar - 03:04:13 10° WNW 03:29:46 88° NNE 03:52:37 10° ESE visible
01 Mar - 05:37:46 10° WNW 06:01:49 48° SW 06:18:38 10° SSE visible
01 Mar - 18:32:52 10° S 18:39:40 26° SE 18:50:36 10° E daylight
01 Mar - 20:54:40 10° WSW 21:05:31 85° SSE 21:27:10 10° ENE visible
01 Mar - 23:21:07 10° W 23:37:29 68° N 00:03:48 10° ENE visible
02 Mar - 01:50:23 10° WNW 02:13:29 77° NNE 02:38:50 10° ESE visible
02 Mar - 04:21:57 10° WNW 04:47:45 67° SW 05:07:47 10° SE visible
02 Mar - 07:00:03 10° W 07:16:51 24° SW 07:29:20 10° S visible
02 Mar - 19:44:27 10° SW 19:53:15 60° SE 20:10:45 10° ENE visible
02 Mar - 22:09:14 10° W 22:22:27 73° NNW 22:46:56 10° ENE visible
03 Mar - 00:37:14 10° WNW 00:57:01 70° N 01:23:38 10° E visible
03 Mar - 03:07:21 10° WNW 03:32:34 83° SSW 03:55:38 10° SE visible
03 Mar - 05:41:20 10° WNW 06:03:59 40° SW 06:20:42 10° SSE visible
03 Mar - 18:35:10 10° SSW 18:42:09 35° SE 18:54:24 10° ENE daylight
03 Mar - 20:58:02 10° WSW 21:08:40 85° NNW 21:30:07 10° ENE visible
03 Mar - 23:24:45 10° W 23:41:01 66° N 00:07:14 10° E visible
04 Mar - 01:53:40 10° WNW 02:16:34 83° NNE 02:42:06 10° ESE visible
04 Mar - 04:25:09 10° WNW 04:50:06 57° SW 05:10:16 10° SSE visible
04 Mar - 07:05:53 10° W 07:19:04 18° SW 07:29:43 10° SSW visible
04 Mar - 17:27:47 10° SSE 17:31:48 15° SE 17:37:03 10° E daylight
04 Mar - 19:47:33 10° SW 19:56:09 74° SSE 20:13:45 10° ENE visible
04 Mar - 22:12:50 10° W 22:25:57 68° N 22:50:09 10° ENE visible
05 Mar - 00:40:42 10° WNW 01:00:22 73° NNE 01:27:04 10° E visible
05 Mar - 03:10:29 10° WNW 03:35:12 75° SW 03:58:25 10° SE visible
05 Mar - 05:45:19 10° WNW 06:06:08 32° SW 06:22:23 10° S visible
05 Mar - 18:37:50 10° SSW 18:44:48 45° SE 18:57:50 10° ENE daylight
05 Mar - 21:01:32 10° WSW 21:12:01 75° NNW 21:33:07 10° ENE visible
